Time,TemperatureF,DewpointF,PressureIn,WindDirection,WindDirectionDegrees,WindSpeedMPH,WindSpeedGustMPH,Humidity,HourlyPrecipIn,Conditions,Clouds,dailyrainin,SoftwareType,DateUTC
2013-02-27 00:00:00,45.4,38.9,30.21,West,281,0.0,0.0,78,0.00,CLR,,0.00,WeatherDisplay:10.37,2013-02-27 08:00:00,
2013-02-27 00:05:00,45.2,39.1,30.21,West,281,0.0,0.0,79,0.00,CLR,,0.00,WeatherDisplay:10.37,2013-02-27 08:05:00,
2013-02-27 00:10:00,45.1,39.0,30.22,West,281,0.0,0.0,79,0.00,CLR,,0.00,WeatherDisplay:10.37,2013-02-27 08:10:00,
2013-02-27 00:15:00,45.0,38.9,30.22,West,281,0.0,0.0,79,0.00,CLR,,0.00,WeatherDisplay:10.37,2013-02-27 08:15:00,
2013-02-27 00:20:00,45.0,38.9,30.22,West,281,0.0,0.0,79,0.00,CLR,,0.00,WeatherDisplay:10.37,2013-02-27 08:20:00,
2013-02-27 00:25:00,45.0,38.9,30.22,West,281,0.0,0.0,79,0.00,CLR,,0.00,WeatherDisplay:10.37,2013-02-27 08:25:00,
2013-02-27 00:30:00,45.0,38.9,30.22,West,281,0.0,0.0,79,0.00,CLR,,0.00,WeatherDisplay:10.37,2013-02-27 08:30:00,
2013-02-27 00:35:00,45.0,38.9,30.22,West,281,0.0,0.0,79,0.00,CLR,,0.00,WeatherDisplay:10.37,2013-02-27 08:35:00,
2013-02-27 00:40:00,44.8,38.7,30.22,West,281,0.0,0.0,79,0.00,CLR,,0.00,WeatherDisplay:10.37,2013-02-27 08:40:00,
2013-02-27 00:45:00,44.7,38.6,30.22,West,281,0.0,0.0,79,0.00,CLR,,0.00,WeatherDisplay:10.37,2013-02-27 08:45:00,
2013-02-27 00:50:00,44.5,38.4,30.22,West,281,0.0,0.0,79,0.00,CLR,,0.00,WeatherDisplay:10.37,2013-02-27 08:50:00,
2013-02-27 00:55:00,44.4,38.3,30.22,West,281,0.0,0.0,79,0.00,CLR,,0.00,WeatherDisplay:10.37,2013-02-27 08:55:00,
2013-02-27 01:00:00,44.3,38.2,30.22,West,281,0.0,0.0,79,0.00,CLR,,0.00,WeatherDisplay:10.37,2013-02-27 09:00:00,
2013-02-27 01:05:00,44.3,38.2,30.22,West,281,0.0,0.0,79,0.00,CLR,,0.00,WeatherDisplay:10.37,2013-02-27 09:05:00,
2013-02-27 01:10:00,44.3,38.2,30.23,West,281,0.0,0.0,79,0.00,CLR,,0.00,WeatherDisplay:10.37,2013-02-27 09:10:00,
2013-02-27 01:15:00,44.4,38.6,30.23,West,281,0.0,0.0,80,0.00,CLR,,0.00,WeatherDisplay:10.37,2013-02-27 09:15:00,
2013-02-27 01:25:00,44.5,38.7,30.23,West,281,0.0,0.0,80,0.00,CLR,,0.00,WeatherDisplay:10.37,2013-02-27 09:25:00,
2013-02-27 01:30:00,44.6,38.8,30.23,West,281,0.0,0.0,80,0.00,CLR,,0.00,WeatherDisplay:10.37,2013-02-27 09:30:00,
2013-02-27 01:35:00,44.5,39.0,30.23,West,281,0.0,0.0,81,0.00,CLR,,0.00,WeatherDisplay:10.37,2013-02-27 09:35:00,
2013-02-27 01:40:00,44.6,38.8,30.23,West,281,0.0,0.0,80,0.00,CLR,,0.00,WeatherDisplay:10.37,2013-02-27 09:40:00,
2013-02-27 01:45:00,44.7,38.9,30.23,West,281,0.0,0.0,80,0.00,CLR,,0.00,WeatherDisplay:10.37,2013-02-27 09:45:00,
2013-02-27 01:50:00,44.7,38.6,30.23,West,281,0.0,0.0,79,0.00,CLR,,0.00,WeatherDisplay:10.37,2013-02-27 09:50:00,
2013-02-27 01:55:00,44.6,38.8,30.23,West,281,0.0,0.0,80,0.00,CLR,,0.00,WeatherDisplay:10.37,2013-02-27 09:55:00,
2013-02-27 02:00:00,44.4,38.6,30.24,West,281,0.0,0.0,80,0.00,CLR,,0.00,WeatherDisplay:10.37,2013-02-27 10:00:00,
2013-02-27 02:05:00,44.3,38.5,30.24,West,281,0.0,0.0,80,0.00,CLR,,0.00,WeatherDisplay:10.37,2013-02-27 10:05:00,
2013-02-27 02:10:00,44.2,38.4,30.24,West,281,0.0,0.0,80,0.00,CLR,,0.00,WeatherDisplay:10.37,2013-02-27 10:10:00,
2013-02-27 02:15:00,44.1,38.3,30.24,West,281,0.0,0.0,80,0.00,CLR,,0.00,WeatherDisplay:10.37,2013-02-27 10:15:00,
2013-02-27 02:20:00,44.0,38.2,30.24,West,281,0.0,0.0,80,0.00,CLR,,0.00,WeatherDisplay:10.37,2013-02-27 10:20:00,
2013-02-27 02:25:00,43.9,38.4,30.24,West,281,0.0,0.0,81,0.00,CLR,,0.00,WeatherDisplay:10.37,2013-02-27 10:25:00,
2013-02-27 02:30:00,43.8,38.0,30.24,West,281,0.0,0.0,80,0.00,CLR,,0.00,WeatherDisplay:10.37,2013-02-27 10:30:00,
2013-02-27 02:35:00,43.7,37.9,30.24,West,281,0.0,0.0,80,0.00,CLR,,0.00,WeatherDisplay:10.37,2013-02-27 10:35:00,
2013-02-27 02:40:00,43.7,37.9,30.24,West,281,0.0,0.0,80,0.00,CLR,,0.00,WeatherDisplay:10.37,2013-02-27 10:40:00,
2013-02-27 02:45:00,43.6,37.8,30.24,West,281,0.0,0.0,80,0.00,CLR,,0.00,WeatherDisplay:10.37,2013-02-27 10:45:00,
2013-02-27 02:50:00,43.6,37.8,30.24,West,281,0.0,0.0,80,0.00,CLR,,0.00,WeatherDisplay:10.37,2013-02-27 10:50:00,
2013-02-27 02:55:00,43.5,38.1,30.24,West,281,0.0,0.0,81,0.00,CLR,,0.00,WeatherDisplay:10.37,2013-02-27 10:55:00,
2013-02-27 03:00:00,43.5,38.1,30.24,West,281,0.0,0.0,81,0.00,CLR,,0.00,WeatherDisplay:10.37,2013-02-27 11:00:00,
2013-02-27 03:05:00,43.4,38.0,30.25,West,281,0.0,0.0,81,0.00,CLR,,0.00,WeatherDisplay:10.37,2013-02-27 11:05:00,
2013-02-27 03:10:00,43.3,37.9,30.25,West,281,0.0,0.0,81,0.00,CLR,,0.00,WeatherDisplay:10.37,2013-02-27 11:10:00,
2013-02-27 03:15:00,43.2,37.8,30.25,West,281,0.0,0.0,81,0.00,CLR,,0.00,WeatherDisplay:10.37,2013-02-27 11:15:00,
2013-02-27 03:20:00,43.1,37.7,30.25,West,281,0.0,0.0,81,0.00,CLR,,0.00,WeatherDisplay:10.37,2013-02-27 11:20:00,
2013-02-27 03:25:00,43.0,37.6,30.25,West,281,0.0,0.0,81,0.00,CLR,,0.00,WeatherDisplay:10.37,2013-02-27 11:25:00,
2013-02-27 03:30:00,43.0,37.9,30.25,West,281,0.0,0.0,82,0.00,CLR,,0.00,WeatherDisplay:10.37,2013-02-27 11:30:00,
2013-02-27 03:35:00,42.9,37.8,30.25,West,281,0.0,0.0,82,0.00,CLR,,0.00,WeatherDisplay:10.37,2013-02-27 11:35:00,
2013-02-27 03:40:00,42.8,38.0,30.25,West,281,0.0,0.0,83,0.00,CLR,,0.00,WeatherDisplay:10.37,2013-02-27 11:40:00,
2013-02-27 03:45:00,42.8,38.3,30.24,West,281,0.0,0.0,84,0.00,CLR,,0.00,WeatherDisplay:10.37,2013-02-27 11:45:00,
2013-02-27 03:50:00,42.8,38.3,30.25,West,281,0.0,0.0,84,0.00,CLR,,0.00,WeatherDisplay:10.37,2013-02-27 11:50:00,
2013-02-27 03:55:00,42.8,38.3,30.25,West,281,0.0,0.0,84,0.00,CLR,,0.00,WeatherDisplay:10.37,2013-02-27 11:55:00,
2013-02-27 04:00:00,42.7,38.2,30.25,West,281,0.0,0.0,84,0.00,CLR,,0.00,WeatherDisplay:10.37,2013-02-27 12:00:00,
2013-02-27 04:05:00,42.7,38.5,30.25,West,281,0.0,0.0,85,0.00,CLR,,0.00,WeatherDisplay:10.37,2013-02-27 12:05:00,
2013-02-27 04:10:00,42.6,38.4,30.25,West,281,0.0,0.0,85,0.00,CLR,,0.00,WeatherDisplay:10.37,2013-02-27 12:10:00,
2013-02-27 04:15:00,42.6,38.7,30.24,West,281,0.0,0.0,86,0.00,CLR,,0.00,WeatherDisplay:10.37,2013-02-27 12:15:00,
2013-02-27 04:20:00,42.6,38.7,30.24,West,281,0.0,0.0,86,0.00,CLR,,0.00,WeatherDisplay:10.37,2013-02-27 12:20:00,
2013-02-27 04:25:00,42.5,38.6,30.24,West,281,0.0,0.0,86,0.00,CLR,,0.00,WeatherDisplay:10.37,2013-02-27 12:25:00,
2013-02-27 04:30:00,42.5,38.6,30.24,West,281,0.0,0.0,86,0.00,CLR,,0.00,WeatherDisplay:10.37,2013-02-27 12:30:00,
2013-02-27 04:35:00,42.5,38.6,30.24,West,281,0.0,0.0,86,0.00,CLR,,0.00,WeatherDisplay:10.37,2013-02-27 12:35:00,
2013-02-27 04:40:00,42.6,38.4,30.24,West,281,0.0,0.0,85,0.00,CLR,,0.00,WeatherDisplay:10.37,2013-02-27 12:40:00,
2013-02-27 04:45:00,42.7,38.5,30.25,West,281,0.0,0.0,85,0.00,CLR,,0.00,WeatherDisplay:10.37,2013-02-27 12:45:00,
2013-02-27 04:50:00,42.7,38.2,30.24,West,281,0.0,0.0,84,0.00,CLR,,0.00,WeatherDisplay:10.37,2013-02-27 12:50:00,
2013-02-27 04:55:00,42.7,37.9,30.25,West,281,1.2,0.0,83,0.00,CLR,,0.00,WeatherDisplay:10.37,2013-02-27 12:55:00,
2013-02-27 05:00:00,42.5,37.7,30.25,West,281,0.0,0.0,83,0.00,CLR,,0.00,WeatherDisplay:10.37,2013-02-27 13:00:00,
2013-02-27 05:05:00,42.5,37.7,30.25,West,281,0.0,0.0,83,0.00,CLR,,0.00,WeatherDisplay:10.37,2013-02-27 13:05:00,
2013-02-27 05:10:00,42.5,37.7,30.25,West,281,0.0,0.0,83,0.00,CLR,,0.00,WeatherDisplay:10.37,2013-02-27 13:10:00,
2013-02-27 05:15:00,42.4,37.6,30.25,West,281,0.0,0.0,83,0.00,CLR,,0.00,WeatherDisplay:10.37,2013-02-27 13:15:00,
2013-02-27 05:20:00,42.5,38.0,30.25,West,281,0.0,0.0,84,0.00,CLR,,0.00,WeatherDisplay:10.37,2013-02-27 13:20:00,
2013-02-27 05:25:00,42.4,37.9,30.25,West,281,0.0,0.0,84,0.00,CLR,,0.00,WeatherDisplay:10.37,2013-02-27 13:25:00,
2013-02-27 05:30:00,42.3,37.8,30.25,West,281,0.0,0.0,84,0.00,CLR,,0.00,WeatherDisplay:10.37,2013-02-27 13:30:00,
2013-02-27 05:35:00,42.2,37.7,30.25,West,281,0.0,0.0,84,0.00,CLR,,0.00,WeatherDisplay:10.37,2013-02-27 13:35:00,
2013-02-27 05:40:00,42.1,37.3,30.25,West,281,0.0,0.0,83,0.00,CLR,,0.00,WeatherDisplay:10.37,2013-02-27 13:40:00,
2013-02-27 05:45:00,42.0,37.2,30.25,West,281,0.0,0.0,83,0.00,CLR,,0.00,WeatherDisplay:10.37,2013-02-27 13:45:00,
2013-02-27 05:50:00,41.9,37.1,30.25,West,281,0.0,0.0,83,0.00,CLR,,0.00,WeatherDisplay:10.37,2013-02-27 13:50:00,
2013-02-27 05:55:00,41.9,37.4,30.25,West,281,0.0,0.0,84,0.00,CLR,,0.00,WeatherDisplay:10.37,2013-02-27 13:55:00,
2013-02-27 06:00:00,41.9,37.4,30.25,West,281,0.0,0.0,84,0.00,CLR,,0.00,WeatherDisplay:10.37,2013-02-27 14:00:00,
2013-02-27 06:05:00,41.9,37.4,30.26,West,281,0.0,0.0,84,0.00,CLR,,0.00,WeatherDisplay:10.37,2013-02-27 14:05:00,
2013-02-27 06:10:00,41.7,37.5,30.26,West,281,0.0,0.0,85,0.00,CLR,,0.00,WeatherDisplay:10.37,2013-02-27 14:10:00,
2013-02-27 06:15:00,41.5,37.0,30.27,West,281,0.0,0.0,84,0.00,CLR,,0.00,WeatherDisplay:10.37,2013-02-27 14:15:00,
2013-02-27 06:20:00,41.4,36.6,30.27,West,281,0.0,0.0,83,0.00,CLR,,0.00,WeatherDisplay:10.37,2013-02-27 14:20:00,
2013-02-27 06:25:00,41.2,36.4,30.27,West,281,0.0,0.0,83,0.00,CLR,,0.00,WeatherDisplay:10.37,2013-02-27 14:25:00,
2013-02-27 06:30:00,41.1,36.3,30.27,West,281,0.0,0.0,83,0.00,CLR,,0.00,WeatherDisplay:10.37,2013-02-27 14:30:00,
2013-02-27 06:35:00,41.1,36.0,30.28,West,281,0.0,0.0,82,0.00,CLR,,0.00,WeatherDisplay:10.37,2013-02-27 14:35:00,
2013-02-27 06:40:00,41.1,36.0,30.28,West,281,0.0,0.0,82,0.00,CLR,,0.00,WeatherDisplay:10.37,2013-02-27 14:40:00,
2013-02-27 06:45:00,41.1,36.0,30.28,West,281,0.0,0.0,82,0.00,CLR,,0.00,WeatherDisplay:10.37,2013-02-27 14:45:00,
2013-02-27 06:50:00,41.1,36.0,30.28,West,281,0.0,0.0,82,0.00,CLR,,0.00,WeatherDisplay:10.37,2013-02-27 14:50:00,
2013-02-27 06:55:00,41.1,35.7,30.28,West,281,0.0,0.0,81,0.00,CLR,,0.00,WeatherDisplay:10.37,2013-02-27 14:55:00,
2013-02-27 07:00:00,41.1,35.7,30.29,West,281,0.0,0.0,81,0.00,CLR,,0.00,WeatherDisplay:10.37,2013-02-27 15:00:00,
2013-02-27 07:05:00,41.1,35.7,30.29,West,281,0.0,0.0,81,0.00,CLR,,0.00,WeatherDisplay:10.37,2013-02-27 15:05:00,
2013-02-27 07:10:00,41.1,35.7,30.29,West,281,0.0,0.0,81,0.00,CLR,,0.00,WeatherDisplay:10.37,2013-02-27 15:10:00,
2013-02-27 07:15:00,41.2,35.8,30.29,West,281,0.0,0.0,81,0.00,CLR,,0.00,WeatherDisplay:10.37,2013-02-27 15:15:00,
2013-02-27 07:20:00,41.3,36.2,30.29,West,281,0.0,0.0,82,0.00,CLR,,0.00,WeatherDisplay:10.37,2013-02-27 15:20:00,
2013-02-27 07:25:00,41.5,36.7,30.30,West,281,0.0,0.0,83,0.00,CLR,,0.00,WeatherDisplay:10.37,2013-02-27 15:25:00,
2013-02-27 07:30:00,41.7,36.9,30.30,West,281,0.0,0.0,83,0.00,CLR,,0.00,WeatherDisplay:10.37,2013-02-27 15:30:00,
2013-02-27 07:35:00,41.8,37.0,30.30,West,281,0.0,0.0,83,0.00,CLR,,0.00,WeatherDisplay:10.37,2013-02-27 15:35:00,
2013-02-27 07:40:00,42.1,37.6,30.30,West,281,0.0,0.0,84,0.00,CLR,,0.00,WeatherDisplay:10.37,2013-02-27 15:40:00,
2013-02-27 07:45:00,42.3,37.8,30.30,West,281,0.0,0.0,84,0.00,CLR,,0.00,WeatherDisplay:10.37,2013-02-27 15:45:00,
2013-02-27 07:50:00,42.7,38.5,30.31,West,281,0.0,0.0,85,0.00,CLR,,0.00,WeatherDisplay:10.37,2013-02-27 15:50:00,
2013-02-27 07:55:00,42.7,38.5,30.31,West,281,0.0,0.0,85,0.00,CLR,,0.00,WeatherDisplay:10.37,2013-02-27 15:55:00,
2013-02-27 08:00:00,43.2,39.0,30.32,West,281,0.0,0.0,85,0.00,CLR,,0.00,WeatherDisplay:10.37,2013-02-27 16:00:00,
2013-02-27 08:05:00,43.3,39.1,30.31,West,281,0.0,0.0,85,0.00,CLR,,0.00,WeatherDisplay:10.37,2013-02-27 16:05:00,
2013-02-27 08:10:00,44.0,39.5,30.31,West,281,0.0,0.0,84,0.00,CLR,,0.00,WeatherDisplay:10.37,2013-02-27 16:10:00,
2013-02-27 08:15:00,44.0,39.5,30.31,West,281,0.0,0.0,84,0.00,CLR,,0.00,WeatherDisplay:10.37,2013-02-27 16:15:00,
2013-02-27 08:20:00,45.0,41.1,30.32,West,281,0.0,0.0,86,0.00,CLR,,0.00,WeatherDisplay:10.37,2013-02-27 16:20:00,
2013-02-27 08:25:00,45.0,41.1,30.32,West,281,0.0,0.0,86,0.00,CLR,,0.00,WeatherDisplay:10.37,2013-02-27 16:25:00,
2013-02-27 08:30:00,45.8,41.9,30.31,West,281,0.0,0.0,86,0.00,CLR,,0.00,WeatherDisplay:10.37,2013-02-27 16:30:00,
2013-02-27 08:35:00,45.9,41.9,30.31,West,281,0.0,0.0,86,0.00,CLR,,0.00,WeatherDisplay:10.37,2013-02-27 16:35:00,
2013-02-27 08:40:00,46.6,42.9,30.32,West,281,0.0,0.0,87,0.00,CLR,,0.00,WeatherDisplay:10.37,2013-02-27 16:40:00,
2013-02-27 08:45:00,47.2,43.5,30.32,West,281,0.0,0.0,87,0.00,CLR,,0.00,WeatherDisplay:10.37,2013-02-27 16:45:00,
2013-02-27 08:50:00,47.6,43.9,30.32,West,281,0.0,0.0,87,0.00,CLR,,0.00,WeatherDisplay:10.37,2013-02-27 16:50:00,
2013-02-27 08:55:00,47.6,43.9,30.32,West,281,0.0,0.0,87,0.00,CLR,,0.00,WeatherDisplay:10.37,2013-02-27 16:55:00,
2013-02-27 09:00:00,48.0,44.0,30.33,West,281,0.0,0.0,86,0.00,CLR,,0.00,WeatherDisplay:10.37,2013-02-27 17:00:00,
2013-02-27 09:05:00,48.1,44.1,30.33,West,281,0.0,0.0,86,0.00,CLR,,0.00,WeatherDisplay:10.37,2013-02-27 17:05:00,
2013-02-27 09:10:00,48.5,43.9,30.33,West,281,0.0,0.1,84,0.00,CLR,,0.00,WeatherDisplay:10.37,2013-02-27 17:10:00,
2013-02-27 09:15:00,48.6,44.0,30.33,West,281,0.0,0.0,84,0.00,CLR,,0.00,WeatherDisplay:10.37,2013-02-27 17:15:00,
2013-02-27 09:20:00,49.3,44.0,30.33,West,281,0.0,0.0,82,0.00,CLR,,0.00,WeatherDisplay:10.37,2013-02-27 17:20:00,
2013-02-27 09:25:00,49.3,44.0,30.33,West,281,0.0,0.0,82,0.00,CLR,,0.00,WeatherDisplay:10.37,2013-02-27 17:25:00,
2013-02-27 09:30:00,50.0,44.4,30.33,SW,233,1.2,0.0,81,0.00,CLR,,0.00,WeatherDisplay:10.37,2013-02-27 17:30:00,
2013-02-27 09:35:00,50.0,44.4,30.33,SW,233,1.2,1.2,81,0.00,CLR,,0.00,WeatherDisplay:10.37,2013-02-27 17:35:00,
2013-02-27 09:40:00,50.6,44.7,30.34,SSW,210,1.2,0.0,80,0.00,CLR,,0.00,WeatherDisplay:10.37,2013-02-27 17:40:00,
2013-02-27 09:45:00,50.7,44.8,30.34,SSW,210,0.0,0.0,80,0.00,CLR,,0.00,WeatherDisplay:10.37,2013-02-27 17:45:00,
2013-02-27 09:50:00,51.6,45.0,30.33,SSW,209,1.2,0.0,78,0.00,CLR,,0.00,WeatherDisplay:10.37,2013-02-27 17:50:00,
2013-02-27 09:55:00,51.6,45.0,30.33,SSW,209,1.2,0.0,78,0.00,CLR,,0.00,WeatherDisplay:10.37,2013-02-27 17:55:00,
2013-02-27 10:00:00,52.5,45.2,30.33,SSW,210,0.0,0.0,76,0.00,CLR,,0.00,WeatherDisplay:10.37,2013-02-27 18:00:00,
2013-02-27 10:05:00,52.7,45.3,30.33,SSW,210,0.0,0.0,76,0.00,CLR,,0.00,WeatherDisplay:10.37,2013-02-27 18:05:00,
2013-02-27 10:10:00,54.0,45.5,30.33,SSW,209,1.2,1.2,73,0.00,CLR,,0.00,WeatherDisplay:10.37,2013-02-27 18:10:00,
2013-02-27 10:15:00,54.0,45.5,30.33,SSW,209,1.2,1.2,73,0.00,CLR,,0.00,WeatherDisplay:10.37,2013-02-27 18:15:00,
2013-02-27 10:20:00,55.3,46.8,30.33,SSW,209,0.0,0.0,73,0.00,CLR,,0.00,WeatherDisplay:10.37,2013-02-27 18:20:00,
2013-02-27 10:25:00,55.4,46.5,30.33,SSW,209,1.2,1.2,72,0.00,CLR,,0.00,WeatherDisplay:10.37,2013-02-27 18:25:00,
2013-02-27 10:30:00,55.9,47.0,30.33,SE,126,1.2,0.0,72,0.00,CLR,,0.00,WeatherDisplay:10.37,2013-02-27 18:30:00,
2013-02-27 10:35:00,55.9,47.0,30.33,SE,126,1.2,1.2,72,0.00,CLR,,0.00,WeatherDisplay:10.37,2013-02-27 18:35:00,
2013-02-27 10:40:00,56.2,47.7,30.33,West,274,1.2,0.0,73,0.00,CLR,,0.00,WeatherDisplay:10.37,2013-02-27 18:40:00,
2013-02-27 10:45:00,56.2,47.7,30.33,West,274,0.0,0.0,73,0.00,CLR,,0.00,WeatherDisplay:10.37,2013-02-27 18:45:00,
2013-02-27 10:50:00,57.4,47.7,30.33,South,180,1.2,0.0,70,0.00,CLR,,0.00,WeatherDisplay:10.37,2013-02-27 18:50:00,
2013-02-27 10:55:00,57.4,47.7,30.33,South,180,0.0,0.0,70,0.00,CLR,,0.00,WeatherDisplay:10.37,2013-02-27 18:55:00,
2013-02-27 11:00:00,58.8,48.3,30.32,South,180,2.3,2.3,68,0.00,CLR,,0.00,WeatherDisplay:10.37,2013-02-27 19:00:00,
2013-02-27 11:05:00,59.0,48.4,30.32,South,180,1.2,1.2,68,0.00,CLR,,0.00,WeatherDisplay:10.37,2013-02-27 19:05:00,
2013-02-27 11:10:00,59.1,48.1,30.32,South,185,1.2,1.2,67,0.00,CLR,,0.00,WeatherDisplay:10.37,2013-02-27 19:10:00,
2013-02-27 11:15:00,59.0,48.1,30.32,SW,225,1.2,1.2,67,0.00,CLR,,0.00,WeatherDisplay:10.37,2013-02-27 19:15:00,
2013-02-27 11:20:00,59.8,48.4,30.32,SE,133,1.2,1.2,66,0.00,CLR,,0.00,WeatherDisplay:10.37,2013-02-27 19:20:00,
2013-02-27 11:25:00,59.8,48.4,30.32,SE,133,1.2,1.2,66,0.00,CLR,,0.00,WeatherDisplay:10.37,2013-02-27 19:25:00,
2013-02-27 11:30:00,60.6,48.4,30.32,South,185,0.0,0.2,64,0.00,CLR,,0.00,WeatherDisplay:10.37,2013-02-27 19:30:00,
2013-02-27 11:35:00,60.6,48.4,30.32,South,185,1.2,1.2,64,0.00,CLR,,0.00,WeatherDisplay:10.37,2013-02-27 19:35:00,
2013-02-27 11:40:00,60.9,47.8,30.32,West,275,1.2,0.0,62,0.00,CLR,,0.00,WeatherDisplay:10.37,2013-02-27 19:40:00,
2013-02-27 11:45:00,60.9,47.8,30.32,West,275,0.0,0.0,62,0.00,CLR,,0.00,WeatherDisplay:10.37,2013-02-27 19:45:00,
2013-02-27 11:50:00,61.5,48.4,30.32,SSW,209,2.3,2.3,62,0.00,CLR,,0.00,WeatherDisplay:10.37,2013-02-27 19:50:00,
2013-02-27 11:55:00,61.5,48.4,30.32,SSW,209,1.2,1.2,62,0.00,CLR,,0.00,WeatherDisplay:10.37,2013-02-27 19:55:00,
2013-02-27 12:00:00,61.8,49.1,30.32,SE,144,1.0,0.0,63,0.00,CLR,,0.00,WeatherDisplay:10.37,2013-02-27 20:00:00,
2013-02-27 12:05:00,61.8,48.2,30.32,ESE,123,2.3,2.3,61,0.00,CLR,,0.00,WeatherDisplay:10.37,2013-02-27 20:05:00,
2013-02-27 12:10:00,60.8,47.7,30.32,SE,138,1.2,1.2,62,0.00,CLR,,0.00,WeatherDisplay:10.37,2013-02-27 20:10:00,
2013-02-27 12:15:00,60.7,47.6,30.32,SE,138,2.3,2.3,62,0.00,CLR,,0.00,WeatherDisplay:10.37,2013-02-27 20:15:00,
2013-02-27 12:20:00,60.9,48.2,30.31,SE,137,2.3,2.3,63,0.00,CLR,,0.00,WeatherDisplay:10.37,2013-02-27 20:20:00,
2013-02-27 12:25:00,60.9,47.8,30.31,SE,137,1.2,1.2,62,0.00,CLR,,0.00,WeatherDisplay:10.37,2013-02-27 20:25:00,
2013-02-27 12:30:00,61.4,48.3,30.31,SE,141,1.2,1.2,62,0.00,CLR,,0.00,WeatherDisplay:10.37,2013-02-27 20:30:00,
2013-02-27 12:35:00,61.4,48.3,30.31,SE,141,1.2,1.2,62,0.00,CLR,,0.00,WeatherDisplay:10.37,2013-02-27 20:35:00,
2013-02-27 12:40:00,62.5,48.0,30.31,WNW,300,1.2,1.2,59,0.00,CLR,,0.00,WeatherDisplay:10.37,2013-02-27 20:40:00,
2013-02-27 12:45:00,62.5,48.0,30.31,WNW,300,1.2,1.2,59,0.00,CLR,,0.00,WeatherDisplay:10.37,2013-02-27 20:45:00,
2013-02-27 12:50:00,63.5,48.0,30.31,ESE,116,0.0,0.2,57,0.00,CLR,,0.00,WeatherDisplay:10.37,2013-02-27 20:50:00,
2013-02-27 12:55:00,63.6,48.1,30.31,ESE,116,1.2,1.2,57,0.00,CLR,,0.00,WeatherDisplay:10.37,2013-02-27 20:55:00,
2013-02-27 13:00:00,63.6,47.1,30.31,SE,136,1.2,0.0,55,0.00,CLR,,0.00,WeatherDisplay:10.37,2013-02-27 21:00:00,
2013-02-27 13:05:00,63.6,46.1,30.30,SE,126,2.3,2.3,53,0.00,CLR,,0.00,WeatherDisplay:10.37,2013-02-27 21:05:00,
2013-02-27 13:10:00,62.6,46.2,30.30,WNW,288,3.5,3.5,55,0.00,CLR,,0.00,WeatherDisplay:10.37,2013-02-27 21:10:00,
2013-02-27 13:15:00,62.6,46.2,30.30,WNW,287,2.3,2.3,55,0.00,CLR,,0.00,WeatherDisplay:10.37,2013-02-27 21:15:00,
2013-02-27 13:20:00,63.0,46.6,30.29,South,175,1.2,0.0,55,0.00,CLR,,0.00,WeatherDisplay:10.37,2013-02-27 21:20:00,
2013-02-27 13:25:00,63.1,46.7,30.29,South,175,1.2,1.2,55,0.00,CLR,,0.00,WeatherDisplay:10.37,2013-02-27 21:25:00,
2013-02-27 13:30:00,63.7,46.2,30.29,WSW,253,1.2,1.2,53,0.00,CLR,,0.00,WeatherDisplay:10.37,2013-02-27 21:30:00,
2013-02-27 13:35:00,63.7,46.7,30.29,SSW,209,1.2,1.2,54,0.00,CLR,,0.00,WeatherDisplay:10.37,2013-02-27 21:35:00,
2013-02-27 13:40:00,65.0,45.9,30.29,SSE,148,2.3,2.3,50,0.00,CLR,,0.00,WeatherDisplay:10.37,2013-02-27 21:40:00,
2013-02-27 13:45:00,65.0,45.9,30.29,SSE,148,2.3,2.3,50,0.00,CLR,,0.00,WeatherDisplay:10.37,2013-02-27 21:45:00,
2013-02-27 13:50:00,65.8,46.1,30.29,South,175,1.2,1.2,49,0.00,CLR,,0.00,WeatherDisplay:10.37,2013-02-27 21:50:00,
2013-02-27 13:55:00,65.8,46.1,30.29,SW,220,2.3,2.3,49,0.00,CLR,,0.00,WeatherDisplay:10.37,2013-02-27 21:55:00,
2013-02-27 14:00:00,65.4,45.7,30.29,SSE,158,2.3,2.3,49,0.00,CLR,,0.00,WeatherDisplay:10.37,2013-02-27 22:00:00,
2013-02-27 14:05:00,64.9,46.3,30.28,West,276,3.5,3.5,51,0.00,CLR,,0.00,WeatherDisplay:10.37,2013-02-27 22:05:00,
2013-02-27 14:10:00,64.7,45.1,30.28,NW,324,2.3,2.3,49,0.00,CLR,,0.00,WeatherDisplay:10.37,2013-02-27 22:10:00,
2013-02-27 14:15:00,64.6,45.0,30.28,NW,324,3.5,3.5,49,0.00,CLR,,0.00,WeatherDisplay:10.37,2013-02-27 22:15:00,
2013-02-27 14:20:00,64.4,45.3,30.28,NW,322,3.5,3.5,50,0.00,CLR,,0.00,WeatherDisplay:10.37,2013-02-27 22:20:00,
2013-02-27 14:25:00,64.3,45.3,30.28,NW,322,2.3,2.3,50,0.00,CLR,,0.00,WeatherDisplay:10.37,2013-02-27 22:25:00,
2013-02-27 14:30:00,63.6,45.6,30.28,WNW,303,3.5,3.5,52,0.00,CLR,,0.00,WeatherDisplay:10.37,2013-02-27 22:30:00,
2013-02-27 14:35:00,63.6,45.6,30.28,NW,304,3.5,3.5,52,0.00,CLR,,0.00,WeatherDisplay:10.37,2013-02-27 22:35:00,
2013-02-27 14:40:00,63.8,44.8,30.29,WNW,303,3.5,3.5,50,0.00,CLR,,0.00,WeatherDisplay:10.37,2013-02-27 22:40:00,
2013-02-27 14:45:00,63.6,45.1,30.29,WNW,302,2.3,2.3,51,0.00,CLR,,0.00,WeatherDisplay:10.37,2013-02-27 22:45:00,
2013-02-27 14:50:00,63.6,45.1,30.29,NW,324,3.5,3.5,51,0.00,CLR,,0.00,WeatherDisplay:10.37,2013-02-27 22:50:00,
2013-02-27 14:55:00,63.6,45.1,30.29,NW,324,3.5,3.5,51,0.00,CLR,,0.00,WeatherDisplay:10.37,2013-02-27 22:55:00,
2013-02-27 15:00:00,62.9,45.0,30.29,NW,318,3.5,3.5,52,0.00,CLR,,0.00,WeatherDisplay:10.37,2013-02-27 23:00:00,
2013-02-27 15:05:00,62.8,45.4,30.29,WNW,302,3.5,3.5,53,0.00,CLR,,0.00,WeatherDisplay:10.37,2013-02-27 23:05:00,
2013-02-27 15:10:00,62.8,45.9,30.29,ESE,120,3.5,3.5,54,0.00,CLR,,0.00,WeatherDisplay:10.37,2013-02-27 23:10:00,
2013-02-27 15:15:00,62.8,45.9,30.29,ESE,121,3.5,3.5,54,0.00,CLR,,0.00,WeatherDisplay:10.37,2013-02-27 23:15:00,
2013-02-27 15:20:00,62.6,44.7,30.29,ESE,120,4.6,4.6,52,0.00,CLR,,0.00,WeatherDisplay:10.37,2013-02-27 23:20:00,
2013-02-27 15:25:00,62.6,44.7,30.29,ESE,120,3.5,3.5,52,0.00,CLR,,0.00,WeatherDisplay:10.37,2013-02-27 23:25:00,
2013-02-27 15:30:00,63.0,45.1,30.29,NNW,328,2.3,2.3,52,0.00,CLR,,0.00,WeatherDisplay:10.37,2013-02-27 23:30:00,
2013-02-27 15:35:00,63.2,44.8,30.29,NNW,328,0.0,0.1,51,0.00,CLR,,0.00,WeatherDisplay:10.37,2013-02-27 23:35:00,
2013-02-27 15:40:00,63.1,43.1,30.29,NW,309,2.3,2.3,48,0.00,CLR,,0.00,WeatherDisplay:10.37,2013-02-27 23:40:00,
2013-02-27 15:45:00,63.0,44.1,30.28,West,281,2.0,2.0,50,0.00,CLR,,0.00,WeatherDisplay:10.37,2013-02-27 23:45:00,
2013-02-27 15:50:00,62.8,43.3,30.28,SE,141,3.5,3.5,49,0.00,CLR,,0.00,WeatherDisplay:10.37,2013-02-27 23:50:00,
2013-02-27 15:55:00,62.8,43.3,30.29,NW,315,2.3,2.3,49,0.00,CLR,,0.00,WeatherDisplay:10.37,2013-02-27 23:55:00,
2013-02-27 16:00:00,62.5,42.0,30.29,NW,324,3.5,3.5,47,0.00,CLR,,0.00,WeatherDisplay:10.37,2013-02-28 00:00:00,
2013-02-27 16:05:00,62.3,42.3,30.29,ESE,118,3.0,3.0,48,0.00,CLR,,0.00,WeatherDisplay:10.37,2013-02-28 00:05:00,
2013-02-27 16:10:00,62.3,42.3,30.29,NNW,344,2.0,2.0,48,0.00,CLR,,0.00,WeatherDisplay:10.37,2013-02-28 00:10:00,
2013-02-27 16:15:00,62.3,42.3,30.29,NNW,333,2.0,2.0,48,0.00,CLR,,0.00,WeatherDisplay:10.37,2013-02-28 00:15:00,
2013-02-27 16:20:00,62.2,41.2,30.29,NW,321,1.2,1.2,46,0.00,CLR,,0.00,WeatherDisplay:10.37,2013-02-28 00:20:00,
2013-02-27 16:25:00,62.2,42.3,30.29,NW,306,2.3,2.3,48,0.00,CLR,,0.00,WeatherDisplay:10.37,2013-02-28 00:25:00,
2013-02-27 16:30:00,62.1,42.2,30.29,NW,307,1.2,0.0,48,0.00,CLR,,0.00,WeatherDisplay:10.37,2013-02-28 00:30:00,
2013-02-27 16:35:00,62.0,42.6,30.29,NW,307,2.3,2.3,49,0.00,CLR,,0.00,WeatherDisplay:10.37,2013-02-28 00:35:00,
2013-02-27 16:40:00,62.1,42.2,30.29,NW,314,3.0,3.0,48,0.00,CLR,,0.00,WeatherDisplay:10.37,2013-02-28 00:40:00,
2013-02-27 16:45:00,61.7,40.7,30.29,WNW,293,3.5,3.5,46,0.00,CLR,,0.00,WeatherDisplay:10.37,2013-02-28 00:45:00,
2013-02-27 16:50:00,61.4,39.9,30.29,NW,306,1.2,1.2,45,0.00,CLR,,0.00,WeatherDisplay:10.37,2013-02-28 00:50:00,
2013-02-27 16:55:00,61.1,39.6,30.29,NW,306,0.0,0.2,45,0.00,CLR,,0.00,WeatherDisplay:10.37,2013-02-28 00:55:00,
2013-02-27 17:00:00,60.9,39.4,30.29,NNW,337,2.3,2.3,45,0.00,CLR,,0.00,WeatherDisplay:10.37,2013-02-28 01:00:00,
2013-02-27 17:05:00,60.7,38.1,30.29,NW,304,2.3,2.3,43,0.00,CLR,,0.00,WeatherDisplay:10.37,2013-02-28 01:05:00,
2013-02-27 17:10:00,60.5,36.7,30.29,NW,314,2.3,2.3,41,0.00,CLR,,0.00,WeatherDisplay:10.37,2013-02-28 01:10:00,
2013-02-27 17:15:00,60.2,36.4,30.29,NW,308,3.5,3.5,41,0.00,CLR,,0.00,WeatherDisplay:10.37,2013-02-28 01:15:00,
2013-02-27 17:20:00,59.9,36.1,30.29,WNW,302,1.2,1.2,41,0.00,CLR,,0.00,WeatherDisplay:10.37,2013-02-28 01:20:00,
2013-02-27 17:25:00,59.7,36.6,30.29,WNW,303,2.3,2.3,42,0.00,CLR,,0.00,WeatherDisplay:10.37,2013-02-28 01:25:00,
2013-02-27 17:30:00,59.5,37.6,30.30,WNW,303,1.2,1.2,44,0.00,CLR,,0.00,WeatherDisplay:10.37,2013-02-28 01:30:00,
2013-02-27 17:35:00,59.2,38.4,30.30,WNW,297,1.2,1.2,46,0.00,CLR,,0.00,WeatherDisplay:10.37,2013-02-28 01:35:00,
2013-02-27 17:40:00,59.0,39.9,30.30,WNW,302,1.2,1.2,49,0.00,CLR,,0.00,WeatherDisplay:10.37,2013-02-28 01:40:00,
2013-02-27 17:45:00,59.0,39.9,30.30,WNW,302,3.5,3.5,49,0.00,CLR,,0.00,WeatherDisplay:10.37,2013-02-28 01:45:00,
2013-02-27 17:50:00,57.5,42.4,30.31,WNW,295,2.3,2.3,57,0.00,CLR,,0.00,WeatherDisplay:10.37,2013-02-28 01:50:00,
2013-02-27 17:55:00,57.5,42.4,30.31,WNW,295,2.3,2.3,57,0.00,CLR,,0.00,WeatherDisplay:10.37,2013-02-28 01:55:00,
2013-02-27 18:00:00,56.2,42.9,30.31,WNW,301,3.5,3.5,61,0.00,CLR,,0.00,WeatherDisplay:10.37,2013-02-28 02:00:00,
2013-02-27 18:05:00,55.5,43.5,30.31,NW,308,2.0,2.0,64,0.00,CLR,,0.00,WeatherDisplay:10.37,2013-02-28 02:05:00,
2013-02-27 18:10:00,55.0,43.8,30.31,WNW,297,2.3,2.3,66,0.00,CLR,,0.00,WeatherDisplay:10.37,2013-02-28 02:10:00,
2013-02-27 18:15:00,54.9,43.7,30.31,WNW,297,3.5,3.5,66,0.00,CLR,,0.00,WeatherDisplay:10.37,2013-02-28 02:15:00,
2013-02-27 18:20:00,54.1,43.8,30.31,WNW,297,0.0,0.0,68,0.00,CLR,,0.00,WeatherDisplay:10.37,2013-02-28 02:20:00,
2013-02-27 18:25:00,54.1,43.8,30.31,WNW,297,0.0,0.0,68,0.00,CLR,,0.00,WeatherDisplay:10.37,2013-02-28 02:25:00,
2013-02-27 18:30:00,53.6,43.7,30.31,WNW,297,0.0,0.0,69,0.00,CLR,,0.00,WeatherDisplay:10.37,2013-02-28 02:30:00,
2013-02-27 18:35:00,53.6,43.7,30.31,WNW,297,0.0,0.0,69,0.00,CLR,,0.00,WeatherDisplay:10.37,2013-02-28 02:35:00,
2013-02-27 18:40:00,53.1,43.9,30.32,WNW,297,0.0,0.0,71,0.00,CLR,,0.00,WeatherDisplay:10.37,2013-02-28 02:40:00,
2013-02-27 18:45:00,53.0,43.8,30.32,WNW,297,0.0,0.0,71,0.00,CLR,,0.00,WeatherDisplay:10.37,2013-02-28 02:45:00,
2013-02-27 18:50:00,52.8,44.0,30.33,WNW,297,0.0,0.0,72,0.00,CLR,,0.00,WeatherDisplay:10.37,2013-02-28 02:50:00,
2013-02-27 18:55:00,52.8,44.0,30.33,WNW,297,0.0,0.0,72,0.00,CLR,,0.00,WeatherDisplay:10.37,2013-02-28 02:55:00,
2013-02-27 19:00:00,52.7,44.3,30.33,WNW,297,0.0,0.0,73,0.00,CLR,,0.00,WeatherDisplay:10.37,2013-02-28 03:00:00,
2013-02-27 19:05:00,52.6,44.5,30.33,WNW,297,0.0,0.0,74,0.00,CLR,,0.00,WeatherDisplay:10.37,2013-02-28 03:05:00,
2013-02-27 19:10:00,52.5,44.4,30.33,WNW,297,0.0,0.0,74,0.00,CLR,,0.00,WeatherDisplay:10.37,2013-02-28 03:10:00,
2013-02-27 19:15:00,52.3,44.3,30.33,WNW,297,0.0,0.0,74,0.00,CLR,,0.00,WeatherDisplay:10.37,2013-02-28 03:15:00,
2013-02-27 19:20:00,52.0,44.3,30.33,WNW,297,0.0,0.0,75,0.00,CLR,,0.00,WeatherDisplay:10.37,2013-02-28 03:20:00,
2013-02-27 19:25:00,51.9,44.2,30.34,WNW,297,0.0,0.0,75,0.00,CLR,,0.00,WeatherDisplay:10.37,2013-02-28 03:25:00,
2013-02-27 19:30:00,51.7,44.4,30.34,WNW,297,0.0,0.0,76,0.00,CLR,,0.00,WeatherDisplay:10.37,2013-02-28 03:30:00,
2013-02-27 19:35:00,51.5,44.2,30.34,WNW,297,0.0,0.0,76,0.00,CLR,,0.00,WeatherDisplay:10.37,2013-02-28 03:35:00,
2013-02-27 19:40:00,51.4,44.4,30.34,WNW,297,0.0,0.0,77,0.00,CLR,,0.00,WeatherDisplay:10.37,2013-02-28 03:40:00,
2013-02-27 19:45:00,51.3,44.3,30.34,WNW,297,0.0,0.0,77,0.00,CLR,,0.00,WeatherDisplay:10.37,2013-02-28 03:45:00,
2013-02-27 19:50:00,51.2,44.2,30.34,WNW,297,0.0,0.0,77,0.00,CLR,,0.00,WeatherDisplay:10.37,2013-02-28 03:50:00,
2013-02-27 19:55:00,51.2,44.2,30.34,WNW,297,0.0,0.0,77,0.00,CLR,,0.00,WeatherDisplay:10.37,2013-02-28 03:55:00,
2013-02-27 20:00:00,51.1,43.8,30.35,WNW,297,0.0,0.0,76,0.00,CLR,,0.00,WeatherDisplay:10.37,2013-02-28 04:00:00,
2013-02-27 20:05:00,51.0,43.7,30.35,WNW,297,0.0,0.0,76,0.00,CLR,,0.00,WeatherDisplay:10.37,2013-02-28 04:05:00,
2013-02-27 20:10:00,50.9,43.9,30.35,WNW,297,0.0,0.0,77,0.00,CLR,,0.00,WeatherDisplay:10.37,2013-02-28 04:10:00,
2013-02-27 20:15:00,50.9,43.9,30.35,WNW,297,0.0,0.0,77,0.00,CLR,,0.00,WeatherDisplay:10.37,2013-02-28 04:15:00,
2013-02-27 20:20:00,50.8,43.8,30.35,WNW,297,0.0,0.0,77,0.00,CLR,,0.00,WeatherDisplay:10.37,2013-02-28 04:20:00,
2013-02-27 20:25:00,50.8,44.2,30.35,WNW,297,0.0,0.0,78,0.00,CLR,,0.00,WeatherDisplay:10.37,2013-02-28 04:25:00,
2013-02-27 20:30:00,50.7,44.1,30.35,WNW,297,0.0,0.0,78,0.00,CLR,,0.00,WeatherDisplay:10.37,2013-02-28 04:30:00,
2013-02-27 20:35:00,50.7,44.1,30.35,WNW,297,0.0,0.0,78,0.00,CLR,,0.00,WeatherDisplay:10.37,2013-02-28 04:35:00,
2013-02-27 20:40:00,50.6,44.3,30.35,WNW,297,0.0,0.0,79,0.00,CLR,,0.00,WeatherDisplay:10.37,2013-02-28 04:40:00,
2013-02-27 20:45:00,50.6,44.3,30.35,WNW,297,0.0,0.0,79,0.00,CLR,,0.00,WeatherDisplay:10.37,2013-02-28 04:45:00,
2013-02-27 20:50:00,50.7,45.1,30.35,WNW,297,0.0,0.0,81,0.00,CLR,,0.00,WeatherDisplay:10.37,2013-02-28 04:50:00,
2013-02-27 20:55:00,50.8,45.2,30.36,WNW,297,0.0,0.0,81,0.00,CLR,,0.00,WeatherDisplay:10.37,2013-02-28 04:55:00,
2013-02-27 21:00:00,50.9,45.6,30.36,WNW,297,0.0,0.0,82,0.00,CLR,,0.00,WeatherDisplay:10.37,2013-02-28 05:00:00,
2013-02-27 21:05:00,50.9,45.6,30.36,WNW,297,0.0,0.0,82,0.00,CLR,,0.00,WeatherDisplay:10.37,2013-02-28 05:05:00,
2013-02-27 21:10:00,50.9,45.9,30.36,WNW,297,0.0,0.0,83,0.00,CLR,,0.00,WeatherDisplay:10.37,2013-02-28 05:10:00,
2013-02-27 21:15:00,50.9,45.9,30.36,WNW,297,0.0,0.0,83,0.00,CLR,,0.00,WeatherDisplay:10.37,2013-02-28 05:15:00,
2013-02-27 21:20:00,50.9,45.9,30.36,WNW,297,0.0,0.0,83,0.00,CLR,,0.00,WeatherDisplay:10.37,2013-02-28 05:20:00,
2013-02-27 21:25:00,50.8,45.8,30.36,WNW,297,0.0,0.0,83,0.00,CLR,,0.00,WeatherDisplay:10.37,2013-02-28 05:25:00,
2013-02-27 21:30:00,50.7,45.7,30.36,WNW,297,0.0,0.0,83,0.00,CLR,,0.00,WeatherDisplay:10.37,2013-02-28 05:30:00,
2013-02-27 21:35:00,50.7,45.7,30.36,WNW,297,0.0,0.0,83,0.00,CLR,,0.00,WeatherDisplay:10.37,2013-02-28 05:35:00,
2013-02-27 21:40:00,50.6,45.6,30.36,WNW,297,0.0,0.0,83,0.00,CLR,,0.00,WeatherDisplay:10.37,2013-02-28 05:40:00,
2013-02-27 21:45:00,50.5,45.5,30.37,WNW,297,0.0,0.0,83,0.00,CLR,,0.00,WeatherDisplay:10.37,2013-02-28 05:45:00,
2013-02-27 21:50:00,50.4,45.7,30.37,WNW,297,0.0,0.0,84,0.00,CLR,,0.00,WeatherDisplay:10.37,2013-02-28 05:50:00,
2013-02-27 21:55:00,50.3,46.0,30.37,WNW,297,0.0,0.0,85,0.00,CLR,,0.00,WeatherDisplay:10.37,2013-02-28 05:55:00,
2013-02-27 22:00:00,50.3,46.0,30.37,WNW,297,0.0,0.0,85,0.00,CLR,,0.00,WeatherDisplay:10.37,2013-02-28 06:00:00,
2013-02-27 22:05:00,50.2,46.2,30.37,WNW,298,0.0,0.0,86,0.00,CLR,,0.00,WeatherDisplay:10.37,2013-02-28 06:05:00,
2013-02-27 22:10:00,50.1,46.1,30.37,WNW,297,0.0,0.0,86,0.00,CLR,,0.00,WeatherDisplay:10.37,2013-02-28 06:10:00,
2013-02-27 22:15:00,49.9,45.9,30.37,WNW,297,0.0,0.0,86,0.00,CLR,,0.00,WeatherDisplay:10.37,2013-02-28 06:15:00,
2013-02-27 22:20:00,49.8,45.8,30.37,WNW,297,0.0,0.0,86,0.00,CLR,,0.00,WeatherDisplay:10.37,2013-02-28 06:20:00,
2013-02-27 22:25:00,49.7,46.0,30.37,WNW,297,0.0,0.0,87,0.00,CLR,,0.00,WeatherDisplay:10.37,2013-02-28 06:25:00,
2013-02-27 22:30:00,49.5,45.8,30.37,WNW,297,0.0,0.0,87,0.00,CLR,,0.00,WeatherDisplay:10.37,2013-02-28 06:30:00,
2013-02-27 22:35:00,49.4,46.0,30.38,WNW,297,0.0,0.0,88,0.00,CLR,,0.00,WeatherDisplay:10.37,2013-02-28 06:35:00,
2013-02-27 22:40:00,49.3,45.9,30.38,WNW,297,0.0,0.0,88,0.00,CLR,,0.00,WeatherDisplay:10.37,2013-02-28 06:40:00,
2013-02-27 22:45:00,49.2,45.8,30.38,WNW,297,0.0,0.0,88,0.00,CLR,,0.00,WeatherDisplay:10.37,2013-02-28 06:45:00,
2013-02-27 22:50:00,49.2,46.1,30.37,WNW,297,0.0,0.0,89,0.00,CLR,,0.00,WeatherDisplay:10.37,2013-02-28 06:50:00,
2013-02-27 22:55:00,49.1,46.0,30.37,WNW,297,0.0,0.0,89,0.00,CLR,,0.00,WeatherDisplay:10.37,2013-02-28 06:55:00,
2013-02-27 23:00:00,49.0,45.9,30.38,WNW,297,0.0,0.0,89,0.00,CLR,,0.00,WeatherDisplay:10.37,2013-02-28 07:00:00,
2013-02-27 23:05:00,49.0,45.9,30.38,WNW,297,0.0,0.0,89,0.00,CLR,,0.00,WeatherDisplay:10.37,2013-02-28 07:05:00,
2013-02-27 23:10:00,49.0,46.2,30.38,WNW,297,0.0,0.0,90,0.00,CLR,,0.00,WeatherDisplay:10.37,2013-02-28 07:10:00,
2013-02-27 23:15:00,48.9,46.1,30.38,WNW,297,0.0,0.0,90,0.00,CLR,,0.00,WeatherDisplay:10.37,2013-02-28 07:15:00,
2013-02-27 23:20:00,48.9,46.1,30.37,WNW,297,0.0,0.0,90,0.00,CLR,,0.00,WeatherDisplay:10.37,2013-02-28 07:20:00,
2013-02-27 23:25:00,48.8,46.0,30.37,WNW,297,0.0,0.0,90,0.00,CLR,,0.00,WeatherDisplay:10.37,2013-02-28 07:25:00,
2013-02-27 23:30:00,48.7,45.9,30.38,WNW,297,0.0,0.0,90,0.00,CLR,,0.00,WeatherDisplay:10.37,2013-02-28 07:30:00,
2013-02-27 23:35:00,48.7,46.2,30.37,WNW,297,0.0,0.0,91,0.00,CLR,,0.00,WeatherDisplay:10.37,2013-02-28 07:35:00,
2013-02-27 23:40:00,48.6,46.1,30.37,WNW,297,0.0,0.0,91,0.00,CLR,,0.00,WeatherDisplay:10.37,2013-02-28 07:40:00,
2013-02-27 23:45:00,48.5,46.0,30.38,WNW,297,0.0,0.0,91,0.00,CLR,,0.00,WeatherDisplay:10.37,2013-02-28 07:45:00,
2013-02-27 23:50:00,48.5,46.0,30.38,WNW,297,0.0,0.0,91,0.00,CLR,,0.00,WeatherDisplay:10.37,2013-02-28 07:50:00,
2013-02-27 23:55:00,48.5,46.0,30.38,WNW,297,0.0,0.0,91,0.00,CLR,,0.00,WeatherDisplay:10.37,2013-02-28 07:55:00,